GALAXY 5

导读 | 豆包AI

GALAXY 5(银河5号)是美国休斯飞机公司基于HS-376平台建造的地球静止轨道通信卫星,由PanAmSat运营,1992年3月14日于美国佛罗里达州卡纳维拉尔角空军基地,通过宇宙神I火箭发射升空。卫星携带24个C波段转发器,定点于东经176度,主要为北美地区提供通信服务,2005年1月完成使命正式退役。

Basic Information
目录编号:
21906
目录名称:
GALAXY 5
国际标识:
1992-013A
轨道中心:
EARTH
卫星名称:
GALAXY 5
卫星全名:
--
卫星状态:
在轨 (已飞行12418 天)
发射日期:
1992-03-14 UTC
国别 :
美国 (US)
星等 :
--
Orbit Information
数据来源 国际轨道数据 AOE轨道数据
星历时间 2026-03-13T17:44:45+0800
17小时前
查看轨道信息
2026-03-11T17:00:00+0800
2天前
查看轨道信息
半长轴 42443.425km 42443.396km
偏心率 0.0012076 0.0011995
轨道倾角 13.376° 13.374°
近地点辐角 86.477° 86.197°
升交点赤经 19.042° 19.057°
平近点角 103.624° 97.913°
近地点 36014.033km 36014.348km
远地点 36116.543km 36116.17km
周期 1450.358分钟 1450.357分钟
每日圈数 0.992858 0.992859
Detailed Information
使用方式:
暂无
2D Orbit Map
3D Orbit Map
Orbit Altitude Analysis Chart
Orbit Inclination Analysis Chart
Orbit Comprehensive Analysis Chart
View Comprehensive Chart